1547805600.74,33761,0.0,0.0,-9.09,-14.97,-14.55,0,*5E
1547805602.0,33762,0.0,0.0,-9.07,-15.29,-14.97,0,*59
1547805603.25,33763,0.0,0.0,-9.09,-15.15,-14.83,0,*5C
1547805604.49,33764,0.0,0.0,-9.09,-15.01,-14.61,0,*52
1547805605.74,33765,0.0,0.0,-9.09,-14.97,-14.43,0,*5D
1547805607.01,33766,0.0,0.0,-9.11,-15.43,-14.89,0,*59
1547805608.27,33767,0.0,0.0,-9.13,-15.81,-14.93,0,*5F
1547805609.52,33768,0.0,0.0,-9.13,-16.37,-15.21,0,*56
1547805610.78,33769,0.0,0.0,-9.13,-16.17,-14.75,0,*55
1547805612.07,33770,0.0,0.0,-9.11,-15.89,-14.43,0,*5E
1547805613.33,33771,0.0,0.0,-9.11,-15.53,-13.87,0,*57
1547805614.57,33772,0.0,0.0,-9.11,-15.29,-13.55,0,*56
1547805615.81,33773,0.0,0.0,-9.13,-15.35,-13.65,0,*5B
1547805617.05,33774,0.0,0.0,-9.09,-15.85,-14.23,0,*59
1547805618.32,33775,0.0,0.0,-9.13,-16.23,-14.47,0,*5E
1547805619.59,33776,0.0,0.0,-9.13,-16.17,-14.51,0,*5D
1547805620.86,33777,0.0,0.0,-9.13,-16.17,-14.47,0,*5B
1547805622.08,33778,0.0,0.0,-9.13,-15.95,-14.29,0,*55
1547805623.31,33779,0.0,0.0,-9.13,-15.81,-14.19,0,*52
1547805624.55,33780,0.0,0.0,-9.13,-15.63,-14.05,0,*55
1547805625.79,33781,0.0,0.0,-9.15,-15.95,-14.33,0,*5E
1547805627.05,33782,0.0,0.0,-9.15,-15.85,-14.33,0,*5C
1547805628.28,33783,0.0,0.0,-9.15,-15.49,-13.93,0,*50
1547805629.55,33784,0.0,0.0,-9.17,-15.49,-13.97,0,*51
1547805630.8,33785,0.0,0.0,-9.15,-15.21,-13.69,0,*5D
1547805632.08,33786,0.0,0.0,-9.15,-14.79,-13.37,0,*59
1547805633.32,33787,0.0,0.0,-9.15,-14.33,-12.93,0,*59
1547805634.57,33788,0.0,0.0,-9.11,-14.19,-12.93,0,*5A
1547805635.84,33789,0.0,0.0,-9.15,-14.11,-12.83,0,*56
1547805637.08,33790,0.0,0.0,-9.15,-14.23,-13.11,0,*55
1547805638.36,33791,0.0,0.0,-9.15,-14.47,-13.23,0,*57
1547805639.62,33792,0.0,0.0,-9.15,-14.47,-13.47,0,*56
1547805640.86,33793,0.0,0.0,-9.13,-14.19,-13.29,0,*52
1547805642.07,33794,0.0,0.0,-9.13,-14.33,-13.43,0,*51
1547805643.35,33795,0.0,0.0,-9.11,-14.05,-13.19,0,*58
1547805644.6,33796,0.0,0.0,-9.13,-13.87,-12.89,0,*5C
1547805645.86,33797,0.0,0.0,-9.13,-13.79,-13.01,0,*5D
1547805647.1,33798,0.0,0.0,-9.13,-13.55,-12.61,0,*5B
1547805648.34,33799,0.0,0.0,-9.13,-13.33,-12.43,0,*5A
1547805649.6,33800,0.0,0.0,-9.11,-13.47,-12.57,0,*51
1547805650.87,33801,0.0,0.0,-9.11,-13.33,-12.47,0,*52
1547805652.13,33802,0.0,0.0,-9.11,-13.29,-12.43,0,*5E
1547805653.43,33803,0.0,0.0,-9.11,-12.61,-11.89,0,*57
1547805654.69,33804,0.0,0.0,-9.11,-12.47,-11.73,0,*51
1547805655.95,33805,0.0,0.0,-9.11,-12.47,-11.81,0,*5D
1547805657.17,33806,0.0,0.0,-9.09,-12.89,-12.25,0,*58
1547805658.41,33807,0.0,0.0,-9.09,-12.43,-11.73,0,*5F
1547805659.67,33808,0.0,0.0,-9.07,-12.03,-11.55,0,*5E
1547805660.91,33809,0.0,0.0,-9.05,-11.63,-11.11,0,*58
1547805662.18,33810,0.0,0.0,-9.03,-11.63,-11.11,0,*56
1547805663.47,33811,0.0,0.0,-9.03,-11.67,-11.29,0,*58
1547805664.7,33812,0.0,0.0,-8.97,-11.81,-11.45,0,*55
1547805665.96,33813,0.0,0.0,-8.99,-11.89,-11.45,0,*52
1547805667.2,33814,0.0,0.0,-8.97,-11.59,-11.19,0,*5F
1547805668.49,33815,0.0,0.0,-8.95,-11.55,-11.07,0,*5F
1547805669.75,33816,0.0,0.0,-8.95,-11.63,-11.19,0,*56
1547805671.01,33817,0.0,0.0,-8.95,-11.89,-11.45,0,*5A
1547805672.24,33818,0.0,0.0,-8.93,-12.03,-11.73,0,*57
1547805673.5,33819,0.0,0.0,-8.89,-11.81,-11.51,0,*54
1547805674.78,33820,0.0,0.0,-8.91,-11.67,-11.29,0,*50
1547805676.04,33821,0.0,0.0,-8.91,-11.73,-11.41,0,*5A
1547805677.28,33822,0.0,0.0,-8.89,-11.77,-11.45,0,*50
1547805678.56,33823,0.0,0.0,-8.91,-11.67,-11.51,0,*5C
1547805679.82,33824,0.0,0.0,-8.89,-11.63,-11.37,0,*56
1547805681.06,33825,0.0,0.0,-8.89,-11.67,-11.45,0,*56
1547805682.31,33826,0.0,0.0,-8.89,-11.55,-11.33,0,*55
1547805683.6,33827,0.0,0.0,-8.87,-11.55,-11.33,0,*5A
1547805684.86,33828,0.0,0.0,-8.85,-11.63,-11.33,0,*52
1547805686.09,33829,0.0,0.0,-8.85,-11.85,-11.41,0,*5E
1547805687.31,33830,0.0,0.0,-8.85,-11.41,-11.15,0,*5F
1547805688.56,33831,0.0,0.0,-8.83,-11.51,-11.33,0,*5D
1547805689.82,33832,0.0,0.0,-8.81,-11.63,-11.45,0,*5C
1547805691.09,33833,0.0,0.0,-8.81,-11.63,-11.41,0,*59
1547805692.35,33834,0.0,0.0,-8.81,-11.51,-11.19,0,*52
1547805693.59,33835,0.0,0.0,-8.81,-11.41,-11.19,0,*52
1547805694.85,33836,0.0,0.0,-8.77,-11.37,-11.15,0,*55
1547805696.09,33837,0.0,0.0,-8.75,-11.23,-11.07,0,*50
1547805697.33,33838,0.0,0.0,-8.75,-11.33,-11.19,0,*51
1547805698.57,33839,0.0,0.0,-8.75,-11.23,-11.07,0,*5E
1547805699.78,33840,0.0,0.0,-8.75,-11.23,-10.93,0,*5C
1547805701.04,33841,0.0,0.0,-8.73,-11.51,-11.23,0,*54
1547805702.28,33842,0.0,0.0,-8.71,-11.37,-11.15,0,*50
1547805703.51,33843,0.0,0.0,-8.71,-11.33,-11.01,0,*50
1547805704.72,33844,0.0,0.0,-8.71,-11.19,-11.01,0,*5F
1547805705.93,33845,0.0,0.0,-8.71,-11.19,-10.93,0,*54
1547805707.17,33846,0.0,0.0,-8.67,-11.29,-11.01,0,*59
1547805708.42,33847,0.0,0.0,-8.69,-11.45,-11.19,0,*55
1547805709.63,33848,0.0,0.0,-8.67,-11.23,-10.97,0,*53
1547805710.9,33849,0.0,0.0,-8.69,-11.33,-11.15,0,*56
1547805712.16,33850,0.0,0.0,-8.67,-11.55,-11.29,0,*5F
1547805713.42,33851,0.0,0.0,-8.67,-11.59,-11.33,0,*59
1547805714.63,33852,0.0,0.0,-8.67,-11.41,-11.11,0,*53
1547805715.86,33853,0.0,0.0,-8.67,-11.81,-11.45,0,*5F
1547805717.11,33854,0.0,0.0,-8.67,-11.73,-11.33,0,*54
1547805718.37,33855,0.0,0.0,-8.67,-11.67,-11.33,0,*50
1547805719.64,33856,0.0,0.0,-8.67,-11.93,-11.55,0,*58
1547805720.9,33857,0.0,0.0,-8.67,-11.67,-11.29,0,*59
1547805722.15,33858,0.0,0.0,-8.67,-11.29,-10.97,0,*58
1547805723.36,33859,0.0,0.0,-8.67,-11.23,-10.89,0,*5C
1547805724.6,33860,0.0,0.0,-8.67,-11.15,-10.75,0,*50
1547805725.86,33861,0.0,0.0,-8.65,-11.11,-10.75,0,*57
1547805727.09,33862,0.0,0.0,-8.65,-11.11,-10.85,0,*5B
1547805728.32,33863,0.0,0.0,-8.65,-11.01,-10.85,0,*5B
1547805729.55,33864,0.0,0.0,-8.63,-11.51,-11.23,0,*52
1547805730.76,33865,0.0,0.0,-8.63,-11.11,-10.93,0,*5D
1547805732.0,33866,0.0,0.0,-8.63,-11.11,-10.71,0,*52
1547805733.26,33867,0.0,0.0,-8.63,-11.07,-10.71,0,*54
1547805734.53,33868,0.0,0.0,-8.63,-11.07,-10.67,0,*5C
1547805735.79,33869,0.0,0.0,-8.63,-11.07,-10.67,0,*5D
1547805737.0,33870,0.0,0.0,-8.59,-10.89,-10.53,0,*5C
1547805738.23,33871,0.0,0.0,-8.59,-11.01,-10.63,0,*5F
1547805739.5,33872,0.0,0.0,-8.61,-10.67,-10.23,0,*52
1547805740.74,33873,0.0,0.0,-8.59,-10.41,-10.09,0,*54
1547805741.98,33874,0.0,0.0,-8.55,-10.75,-10.35,0,*57
1547805743.18,33875,0.0,0.0,-8.55,-10.31,-9.97,0,*66
1547805744.41,33876,0.0,0.0,-8.51,-10.19,-9.89,0,*64
1547805745.65,33877,0.0,0.0,-8.51,-10.35,-10.05,0,*57
1547805746.89,33878,0.0,0.0,-8.51,-10.45,-10.01,0,*5B
1547805748.13,33879,0.0,0.0,-8.49,-10.41,-10.09,0,*5F
1547805749.37,33880,0.0,0.0,-8.49,-10.41,-10.01,0,*51
1547805750.6,33881,0.0,0.0,-8.47,-10.45,-10.09,0,*52
1547805751.85,33882,0.0,0.0,-8.45,-10.63,-10.09,0,*57
1547805753.09,33883,0.0,0.0,-8.45,-10.41,-10.05,0,*5A
1547805754.3,33884,0.0,0.0,-8.45,-10.49,-10.09,0,*59
1547805755.52,33885,0.0,0.0,-8.45,-10.53,-10.19,0,*52
1547805756.79,33886,0.0,0.0,-8.43,-10.67,-10.35,0,*5E
1547805758.02,33887,0.0,0.0,-8.43,-10.27,-9.93,0,*6F
1547805759.22,33888,0.0,0.0,-8.41,-10.19,-9.89,0,*64
1547805760.43,33889,0.0,0.0,-8.41,-10.19,-9.79,0,*6A
1547805761.64,33890,0.0,0.0,-8.41,-10.31,-9.93,0,*6C
1547805762.88,33891,0.0,0.0,-8.39,-10.57,-10.15,0,*54
1547805764.14,33892,0.0,0.0,-8.39,-10.63,-10.23,0,*55
1547805765.35,33893,0.0,0.0,-8.37,-10.85,-10.45,0,*52
1547805766.64,33894,0.0,0.0,-8.39,-11.07,-10.71,0,*57
1547805767.87,33895,0.0,0.0,-8.37,-11.11,-10.71,0,*5F
1547805769.08,33896,0.0,0.0,-8.37,-10.93,-10.53,0,*57
1547805770.35,33897,0.0,0.0,-8.37,-10.79,-10.41,0,*51
1547805771.58,33898,0.0,0.0,-8.35,-10.85,-10.45,0,*5B
1547805772.85,33899,0.0,0.0,-8.35,-10.79,-10.31,0,*5A
1547805774.08,33900,0.0,0.0,-8.35,-10.85,-10.31,0,*58
1547805775.35,33901,0.0,0.0,-8.37,-10.79,-10.41,0,*5F
1547805776.56,33902,0.0,0.0,-8.37,-10.85,-10.45,0,*5B
1547805777.82,33903,0.0,0.0,-8.35,-10.85,-10.41,0,*5C
1547805779.09,33904,0.0,0.0,-8.35,-10.85,-10.41,0,*5B
1547805780.36,33905,0.0,0.0,-8.35,-10.97,-10.67,0,*5D
1547805781.57,33906,0.0,0.0,-8.33,-10.93,-10.53,0,*5B
1547805782.81,33907,0.0,0.0,-8.33,-11.19,-10.75,0,*5D
1547805784.04,33908,0.0,0.0,-8.33,-11.19,-10.75,0,*52
1547805785.25,33909,0.0,0.0,-8.33,-10.93,-10.49,0,*5F
1547805786.5,33910,0.0,0.0,-8.33,-10.97,-10.63,0,*5B
1547805787.71,33911,0.0,0.0,-8.33,-10.93,-10.49,0,*56
1547805788.94,33912,0.0,0.0,-8.33,-11.19,-10.79,0,*55
1547805790.18,33913,0.0,0.0,-8.29,-11.19,-10.75,0,*53
1547805791.42,33914,0.0,0.0,-8.33,-11.11,-10.75,0,*57
1547805792.66,33915,0.0,0.0,-8.33,-11.23,-10.79,0,*5B
1547805793.87,33916,0.0,0.0,-8.33,-10.93,-10.53,0,*5A
1547805795.11,33917,0.0,0.0,-8.33,-10.93,-10.63,0,*58
1547805796.33,33918,0.0,0.0,-8.29,-10.93,-10.49,0,*54
1547805797.57,33919,0.0,0.0,-8.29,-10.97,-10.67,0,*5D
1547805798.79,33920,0.0,0.0,-8.29,-10.89,-10.49,0,*54
1547805800.01,33921,0.0,0.0,-8.29,-10.89,-10.35,0,*5E
1547805801.25,33922,0.0,0.0,-8.29,-10.79,-10.49,0,*59
1547805802.48,33923,0.0,0.0,-8.33,-11.11,-10.79,0,*5F
1547805803.72,33924,0.0,0.0,-8.29,-10.89,-10.41,0,*58
1547805804.97,33925,0.0,0.0,-8.29,-10.75,-10.35,0,*59
1547805806.24,33926,0.0,0.0,-8.29,-10.79,-10.41,0,*55
1547805807.48,33927,0.0,0.0,-8.29,-10.93,-10.63,0,*50
1547805808.72,33928,0.0,0.0,-8.29,-10.79,-10.53,0,*58
1547805809.97,33929,0.0,0.0,-8.29,-10.97,-10.63,0,*5A
1547805811.22,33930,0.0,0.0,-8.27,-10.75,-10.49,0,*58
1547805812.51,33931,0.0,0.0,-8.27,-11.07,-10.71,0,*56
1547805813.71,33932,0.0,0.0,-8.25,-11.15,-10.85,0,*5F
1547805814.95,33933,0.0,0.0,-8.27,-10.89,-10.57,0,*57
1547805816.2,33934,0.0,0.0,-8.27,-10.75,-10.45,0,*50
1547805817.44,33935,0.0,0.0,-8.27,-11.15,-10.89,0,*56
1547805818.7,33936,0.0,0.0,-8.27,-11.29,-10.89,0,*5A
1547805819.95,33937,0.0,0.0,-8.27,-11.07,-10.85,0,*5B
1547805821.21,33938,0.0,0.0,-8.27,-11.07,-10.85,0,*54
1547805822.47,33939,0.0,0.0,-8.27,-11.45,-11.33,0,*5F
1547805823.7,33940,0.0,0.0,-8.27,-11.45,-11.19,0,*59
1547805824.93,33941,0.0,0.0,-8.27,-11.15,-10.85,0,*59
1547805826.18,33942,0.0,0.0,-8.27,-11.07,-10.85,0,*59
1547805827.45,33943,0.0,0.0,-8.27,-11.29,-11.01,0,*59
1547805828.67,33944,0.0,0.0,-8.27,-11.15,-10.85,0,*5C
1547805829.89,33945,0.0,0.0,-8.29,-11.11,-10.93,0,*50
1547805831.12,33946,0.0,0.0,-8.27,-11.45,-11.19,0,*5F
1547805832.35,33947,0.0,0.0,-8.27,-11.19,-10.93,0,*54
1547805833.59,33948,0.0,0.0,-8.29,-11.37,-11.11,0,*52
1547805834.8,33949,0.0,0.0,-8.33,-11.45,-11.11,0,*5D
1547805836.04,33950,0.0,0.0,-8.29,-11.37,-11.19,0,*53
1547805837.28,33951,0.0,0.0,-8.33,-11.33,-10.97,0,*5A
1547805838.49,33952,0.0,0.0,-8.29,-11.45,-11.19,0,*54
1547805839.76,33953,0.0,0.0,-8.33,-11.33,-11.07,0,*50
1547805841.0,33954,0.0,0.0,-8.33,-11.33,-10.97,0,*5F
1547805842.24,33955,0.0,0.0,-8.33,-10.97,-10.79,0,*51
1547805843.48,33956,0.0,0.0,-8.33,-10.89,-10.67,0,*52
1547805844.72,33957,0.0,0.0,-8.33,-10.75,-10.49,0,*5C
1547805845.96,33958,0.0,0.0,-8.29,-10.67,-10.53,0,*50
1547805847.2,33959,0.0,0.0,-8.33,-10.79,-10.53,0,*55
1547805848.46,33960,0.0,0.0,-8.33,-10.79,-10.67,0,*58
1547805849.73,33961,0.0,0.0,-8.29,-10.75,-10.63,0,*5A
1547805850.99,33962,0.0,0.0,-8.29,-10.75,-10.63,0,*59
1547805852.26,33963,0.0,0.0,-8.29,-10.79,-10.67,0,*50
1547805853.52,33964,0.0,0.0,-8.27,-10.85,-10.71,0,*5D
1547805854.77,33965,0.0,0.0,-8.27,-10.85,-10.71,0,*5C
1547805856.01,33966,0.0,0.0,-8.27,-11.01,-10.89,0,*55
1547805857.24,33967,0.0,0.0,-8.27,-11.19,-11.01,0,*5C
1547805858.46,33968,0.0,0.0,-8.29,-10.97,-10.93,0,*50
1547805859.7,33969,0.0,0.0,-8.29,-11.33,-11.19,0,*5D
1547805860.91,33970,0.0,0.0,-8.29,-11.23,-11.23,0,*5D
1547805862.13,33971,0.0,0.0,-8.27,-10.89,-10.85,0,*5E
1547805863.37,33972,0.0,0.0,-8.29,-10.89,-10.75,0,*5C
1547805864.66,33973,0.0,0.0,-8.27,-10.71,-10.63,0,*53
1547805865.95,33974,0.0,0.0,-8.27,-10.75,-10.63,0,*50
1547805867.18,33975,0.0,0.0,-8.27,-10.45,-10.45,0,*56
1547805868.41,33976,0.0,0.0,-8.27,-10.89,-10.89,0,*55
1547805869.67,33977,0.0,0.0,-8.27,-11.07,-11.01,0,*52
1547805870.9,33978,0.0,0.0,-8.27,-11.15,-11.01,0,*5E
1547805872.13,33979,0.0,0.0,-8.25,-10.85,-10.71,0,*53
1547805873.37,33980,0.0,0.0,-8.25,-10.85,-10.75,0,*51
1547805874.61,33981,0.0,0.0,-8.25,-10.63,-10.35,0,*5C
1547805875.85,33982,0.0,0.0,-8.25,-10.71,-10.49,0,*57
1547805877.09,33983,0.0,0.0,-8.25,-10.63,-10.49,0,*55
1547805878.33,33984,0.0,0.0,-8.23,-10.45,-10.19,0,*55
1547805879.54,33985,0.0,0.0,-8.21,-10.53,-10.31,0,*5B
1547805880.79,33986,0.0,0.0,-8.21,-11.01,-10.79,0,*52
1547805882.03,33987,0.0,0.0,-8.21,-10.97,-10.79,0,*5D
1547805883.27,33988,0.0,0.0,-8.21,-10.97,-10.71,0,*5A
1547805884.48,33989,0.0,0.0,-8.21,-11.11,-10.85,0,*5F
1547805885.7,33990,0.0,0.0,-8.21,-11.23,-10.97,0,*55
1547805886.94,33991,0.0,0.0,-8.21,-10.97,-10.79,0,*5A
1547805888.18,33992,0.0,0.0,-8.21,-10.71,-10.53,0,*59
1547805889.43,33993,0.0,0.0,-8.21,-10.89,-10.67,0,*58
1547805890.64,33994,0.0,0.0,-8.17,-10.85,-10.53,0,*51
1547805891.86,33995,0.0,0.0,-8.19,-10.53,-10.23,0,*52
1547805893.07,33996,0.0,0.0,-8.17,-10.53,-10.23,0,*5F
1547805894.28,33997,0.0,0.0,-8.17,-10.53,-10.27,0,*5A
1547805895.49,33998,0.0,0.0,-8.17,-10.53,-10.27,0,*55
1547805896.7,33999,0.0,0.0,-8.17,-10.49,-10.27,0,*5F
1547805897.98,34000,0.0,0.0,-8.15,-10.63,-10.35,0,*58
1547805899.22,34001,0.0,0.0,-8.13,-10.63,-10.45,0,*58
1547805900.51,34002,0.0,0.0,-8.15,-10.71,-10.63,0,*5A
1547805901.76,34003,0.0,0.0,-8.13,-10.71,-10.35,0,*5E
1547805902.97,34004,0.0,0.0,-8.13,-10.35,-10.09,0,*56
1547805904.17,34005,0.0,0.0,-8.13,-9.93,-9.67,0,*53
1547805905.39,34006,0.0,0.0,-8.11,-10.01,-9.75,0,*62
1547805906.62,34007,0.0,0.0,-8.11,-10.01,-9.75,0,*63
1547805907.82,34008,0.0,0.0,-8.05,-10.01,-9.71,0,*6D
1547805909.07,34009,0.0,0.0,-8.03,-9.79,-9.57,0,*59
1547805910.34,34010,0.0,0.0,-8.03,-9.83,-9.53,0,*50
1547805911.62,34011,0.0,0.0,-7.99,-9.61,-9.37,0,*53
1547805912.87,34012,0.0,0.0,-7.99,-9.49,-9.27,0,*5B
1547805914.15,34013,0.0,0.0,-7.99,-9.61,-9.41,0,*50
1547805915.38,34014,0.0,0.0,-7.95,-9.57,-9.27,0,*5E
1547805916.63,34015,0.0,0.0,-7.95,-9.53,-9.27,0,*5B
1547805917.89,34016,0.0,0.0,-7.95,-9.57,-9.41,0,*5C
1547805919.08,34017,0.0,0.0,-7.93,-9.31,-9.19,0,*56
1547805920.36,34018,0.0,0.0,-7.91,-9.61,-9.53,0,*50
1547805921.57,34019,0.0,0.0,-7.89,-9.83,-9.79,0,*5C
1547805922.8,34020,0.0,0.0,-7.85,-10.05,-9.93,0,*68
1547805924.02,34021,0.0,0.0,-7.85,-9.89,-9.75,0,*5D
1547805925.27,34022,0.0,0.0,-7.85,-10.15,-10.01,0,*58
1547805926.51,34023,0.0,0.0,-7.85,-10.31,-10.31,0,*5C
1547805927.73,34024,0.0,0.0,-7.83,-10.49,-10.49,0,*5D
1547805928.99,34025,0.0,0.0,-7.83,-10.71,-10.71,0,*5C
1547805930.21,34026,0.0,0.0,-7.83,-10.57,-10.57,0,*5F
1547805931.43,34027,0.0,0.0,-7.83,-10.85,-10.97,0,*5D
1547805932.65,34028,0.0,0.0,-7.83,-11.15,-11.23,0,*54
1547805933.87,34029,0.0,0.0,-7.83,-11.01,-11.23,0,*50
1547805935.13,34030,0.0,0.0,-7.81,-11.19,-11.55,0,*52
1547805936.38,34031,0.0,0.0,-7.83,-11.45,-11.67,0,*59
1547805937.65,34032,0.0,0.0,-7.83,-11.67,-11.81,0,*52
1547805938.89,34033,0.0,0.0,-7.83,-11.23,-11.29,0,*51
1547805940.18,34034,0.0,0.0,-7.85,-11.55,-11.67,0,*5B
1547805941.44,34035,0.0,0.0,-7.85,-11.97,-12.25,0,*51
1547805942.71,34036,0.0,0.0,-7.85,-12.07,-12.25,0,*58
1547805943.97,34037,0.0,0.0,-7.89,-11.63,-11.89,0,*51
1547805945.23,34038,0.0,0.0,-7.89,-12.11,-12.57,0,*58
1547805946.49,34039,0.0,0.0,-7.91,-12.15,-12.47,0,*55
1547805947.78,34040,0.0,0.0,-7.91,-12.11,-12.57,0,*5E
1547805949.05,34041,0.0,0.0,-7.91,-12.29,-12.71,0,*50
1547805950.26,34042,0.0,0.0,-7.93,-12.47,-12.93,0,*55
1547805951.47,34043,0.0,0.0,-7.93,-12.47,-12.93,0,*54
1547805952.67,34044,0.0,0.0,-7.93,-12.47,-12.89,0,*58
1547805953.91,34045,0.0,0.0,-7.93,-12.53,-12.93,0,*57
1547805955.14,34046,0.0,0.0,-7.93,-13.15,-13.33,0,*5C
1547805956.42,34047,0.0,0.0,-7.95,-13.01,-13.33,0,*5E
1547805957.7,34048,0.0,0.0,-7.95,-13.33,-13.61,0,*57
1547805958.94,34049,0.0,0.0,-7.97,-13.93,-14.05,0,*5B
1547805960.19,34050,0.0,0.0,-7.97,-13.87,-13.79,0,*5A
1547805961.42,34051,0.0,0.0,-7.97,-12.93,-12.83,0,*5B
1547805962.63,34052,0.0,0.0,-7.97,-12.97,-13.07,0,*51
1547805963.89,34053,0.0,0.0,-7.99,-13.01,-13.15,0,*53
1547805965.17,34054,0.0,0.0,-7.99,-13.83,-14.15,0,*59
1547805966.41,34055,0.0,0.0,-8.01,-14.83,-14.89,0,*54
1547805967.67,34056,0.0,0.0,-8.01,-15.01,-15.21,0,*5F
1547805968.87,34057,0.0,0.0,-8.05,-15.07,-15.07,0,*58
1547805970.11,34058,0.0,0.0,-8.07,-15.15,-15.15,0,*55
1547805971.37,34059,0.0,0.0,-8.11,-15.07,-14.97,0,*5B
1547805972.62,34060,0.0,0.0,-8.11,-14.93,-14.69,0,*5C
1547805973.83,34061,0.0,0.0,-8.13,-15.11,-14.89,0,*5A
1547805975.08,34062,0.0,0.0,-8.15,-15.63,-15.49,0,*57
1547805976.35,34063,0.0,0.0,-8.15,-15.25,-14.97,0,*56
1547805977.56,34064,0.0,0.0,-8.17,-15.15,-14.89,0,*5F
1547805978.79,34065,0.0,0.0,-8.17,-14.75,-14.33,0,*58
1547805980.0,34066,0.0,0.0,-8.17,-14.89,-14.33,0,*58
1547805981.25,34067,0.0,0.0,-8.19,-15.01,-14.61,0,*51
1547805982.51,34068,0.0,0.0,-8.19,-14.79,-14.29,0,*5C
1547805983.8,34069,0.0,0.0,-8.19,-14.47,-14.05,0,*5E
1547805985.01,34070,0.0,0.0,-8.21,-15.11,-14.65,0,*59
1547805986.3,34071,0.0,0.0,-8.23,-15.35,-14.83,0,*54
1547805987.56,34072,0.0,0.0,-8.23,-15.11,-14.47,0,*59
1547805988.83,34073,0.0,0.0,-8.23,-14.55,-13.79,0,*53
1547805990.07,34074,0.0,0.0,-8.23,-14.23,-13.55,0,*5B
1547805991.33,34075,0.0,0.0,-8.23,-13.93,-13.37,0,*52
1547805992.57,34076,0.0,0.0,-8.23,-14.11,-13.65,0,*5B
1547805993.81,34077,0.0,0.0,-8.23,-14.11,-13.51,0,*5D
1547805995.09,34078,0.0,0.0,-8.23,-13.79,-13.33,0,*5F
1547805996.38,34079,0.0,0.0,-8.23,-13.97,-13.37,0,*5A
1547805997.65,34080,0.0,0.0,-8.25,-13.97,-13.37,0,*5A
1547805998.88,34081,0.0,0.0,-8.25,-13.73,-13.29,0,*5E
1547806000.11,34082,0.0,0.0,-8.25,-13.43,-12.83,0,*5F
1547806001.32,34083,0.0,0.0,-8.25,-13.11,-12.39,0,*58
1547806002.56,34084,0.0,0.0,-8.23,-13.11,-12.39,0,*59
1547806003.79,34085,0.0,0.0,-8.23,-13.65,-12.97,0,*5F
1547806005.04,34086,0.0,0.0,-8.23,-13.51,-12.93,0,*5F
1547806006.26,34087,0.0,0.0,-8.21,-13.69,-13.19,0,*54
1547806007.52,34088,0.0,0.0,-8.23,-13.79,-13.11,0,*50
1547806008.81,34089,0.0,0.0,-8.23,-14.05,-13.37,0,*59
1547806010.04,34090,0.0,0.0,-8.23,-14.11,-13.55,0,*50
1547806011.25,34091,0.0,0.0,-8.25,-14.23,-13.69,0,*59
1547806012.49,34092,0.0,0.0,-8.25,-14.23,-13.61,0,*52
1547806013.71,34093,0.0,0.0,-8.25,-14.23,-13.73,0,*50
1547806014.97,34094,0.0,0.0,-8.25,-13.97,-13.37,0,*5F
1547806016.2,34095,0.0,0.0,-8.25,-13.61,-13.11,0,*53
1547806017.44,34096,0.0,0.0,-8.27,-13.51,-12.97,0,*5E
1547806018.7,34097,0.0,0.0,-8.27,-13.37,-12.89,0,*50
1547806019.96,34098,0.0,0.0,-8.27,-13.15,-12.83,0,*55
1547806021.22,34099,0.0,0.0,-8.27,-13.51,-13.37,0,*5A
1547806022.48,34100,0.0,0.0,-8.27,-13.61,-13.51,0,*58
1547806023.74,34101,0.0,0.0,-8.29,-13.29,-13.29,0,*54
1547806025.0,34102,0.0,0.0,-8.33,-13.29,-13.33,0,*57
1547806026.24,34103,0.0,0.0,-8.29,-13.07,-13.33,0,*51
1547806027.47,34104,0.0,0.0,-8.27,-13.23,-13.51,0,*5A
1547806028.67,34105,0.0,0.0,-8.29,-13.15,-13.47,0,*57
1547806029.88,34106,0.0,0.0,-8.29,-13.43,-13.93,0,*5E
1547806031.08,34107,0.0,0.0,-8.29,-13.55,-13.93,0,*58
1547806032.29,34108,0.0,0.0,-8.29,-13.65,-14.19,0,*51
1547806033.52,34109,0.0,0.0,-8.29,-13.93,-14.43,0,*56
1547806034.79,34110,0.0,0.0,-8.29,-14.05,-14.43,0,*56
1547806036.03,34111,0.0,0.0,-8.29,-14.05,-14.19,0,*58
1547806037.29,34112,0.0,0.0,-8.29,-13.61,-13.87,0,*5E
1547806038.52,34113,0.0,0.0,-8.29,-13.61,-13.73,0,*54
1547806039.76,34114,0.0,0.0,-8.27,-14.15,-14.29,0,*51
1547806041.0,34115,0.0,0.0,-8.27,-14.23,-14.15,0,*5A
1547806042.24,34116,0.0,0.0,-8.27,-14.29,-14.15,0,*53
1547806043.47,34117,0.0,0.0,-8.25,-14.11,-13.83,0,*53
1547806044.71,34118,0.0,0.0,-8.25,-14.37,-14.01,0,*55
1547806045.97,34119,0.0,0.0,-8.27,-14.37,-13.83,0,*5B
1547806047.17,34120,0.0,0.0,-8.25,-14.29,-13.73,0,*53
1547806048.38,34121,0.0,0.0,-8.25,-14.37,-13.69,0,*56
1547806049.62,34122,0.0,0.0,-8.23,-14.23,-13.65,0,*5A
1547806050.9,34123,0.0,0.0,-8.23,-14.55,-13.83,0,*52
1547806052.13,34124,0.0,0.0,-8.23,-14.33,-13.55,0,*5E
1547806053.38,34125,0.0,0.0,-8.25,-13.97,-13.23,0,*51
1547806054.62,34126,0.0,0.0,-8.25,-13.83,-12.97,0,*59
1547806055.86,34127,0.0,0.0,-8.25,-13.43,-12.71,0,*5C
1547806057.06,34128,0.0,0.0,-8.25,-13.15,-12.43,0,*51
1547806058.29,34129,0.0,0.0,-8.25,-12.89,-12.15,0,*57
1547806059.56,34130,0.0,0.0,-8.23,-12.79,-12.21,0,*51
1547806060.79,34131,0.0,0.0,-8.23,-12.97,-12.25,0,*54
1547806062.08,34132,0.0,0.0,-8.23,-12.79,-12.11,0,*50
1547806063.35,34133,0.0,0.0,-8.21,-12.53,-11.85,0,*55
1547806064.61,34134,0.0,0.0,-8.21,-12.65,-12.07,0,*5E
1547806065.87,34135,0.0,0.0,-8.21,-12.61,-12.07,0,*5B
1547806067.13,34136,0.0,0.0,-8.19,-12.43,-11.89,0,*56
1547806068.39,34137,0.0,0.0,-8.19,-12.43,-11.89,0,*57
1547806069.65,34138,0.0,0.0,-8.19,-12.43,-11.93,0,*53
1547806070.91,34139,0.0,0.0,-8.17,-12.15,-11.63,0,*50
1547806072.17,34140,0.0,0.0,-8.17,-12.35,-11.77,0,*59
1547806073.41,34141,0.0,0.0,-8.17,-12.03,-11.63,0,*58
1547806074.64,34142,0.0,0.0,-8.17,-12.43,-12.15,0,*5D
1547806075.87,34143,0.0,0.0,-8.17,-12.93,-12.61,0,*52
1547806077.14,34144,0.0,0.0,-8.17,-12.65,-12.35,0,*5D
1547806078.37,34145,0.0,0.0,-8.17,-12.43,-12.07,0,*59
1547806079.63,34146,0.0,0.0,-8.17,-12.07,-11.59,0,*52
1547806080.86,34147,0.0,0.0,-8.17,-11.77,-11.45,0,*5A
1547806082.12,34148,0.0,0.0,-8.17,-12.15,-11.81,0,*5A
1547806083.36,34149,0.0,0.0,-8.15,-12.25,-12.03,0,*53
1547806084.6,34150,0.0,0.0,-8.13,-12.25,-12.11,0,*5E
1547806085.84,34151,0.0,0.0,-8.15,-12.39,-12.29,0,*5F
1547806087.08,34152,0.0,0.0,-8.15,-12.43,-12.25,0,*5D
1547806088.35,34153,0.0,0.0,-8.15,-12.53,-12.25,0,*5D
1547806089.62,34154,0.0,0.0,-8.15,-12.53,-12.25,0,*5A
1547806090.9,34155,0.0,0.0,-8.15,-11.97,-11.77,0,*54
1547806092.2,34156,0.0,0.0,-8.15,-12.15,-11.89,0,*5F
1547806093.47,34157,0.0,0.0,-8.15,-12.29,-12.11,0,*53
1547806094.76,34158,0.0,0.0,-8.15,-12.11,-11.89,0,*55
1547806096.05,34159,0.0,0.0,-8.15,-12.15,-11.97,0,*5F
1547806097.31,34160,0.0,0.0,-8.15,-12.03,-11.85,0,*51
1547806098.6,34161,0.0,0.0,-8.15,-11.97,-11.77,0,*53
1547806099.83,34162,0.0,0.0,-8.13,-12.03,-11.73,0,*5C
1547806101.1,34163,0.0,0.0,-8.15,-12.25,-11.85,0,*56
1547806102.33,34164,0.0,0.0,-8.13,-11.73,-11.45,0,*5B
1547806103.59,34165,0.0,0.0,-8.15,-12.03,-11.89,0,*58
1547806104.82,34166,0.0,0.0,-8.17,-12.03,-11.81,0,*51
1547806106.11,34167,0.0,0.0,-8.15,-11.89,-11.55,0,*5A
1547806107.38,34168,0.0,0.0,-8.13,-11.85,-11.55,0,*5F
1547806108.63,34169,0.0,0.0,-8.13,-11.77,-11.59,0,*5F
1547806109.9,34170,0.0,0.0,-8.13,-12.15,-11.97,0,*52
1547806111.18,34171,0.0,0.0,-8.15,-12.11,-11.77,0,*5F
1547806112.44,34172,0.0,0.0,-8.15,-12.03,-11.85,0,*52
1547806113.74,34173,0.0,0.0,-8.15,-12.15,-11.89,0,*58
1547806115.03,34174,0.0,0.0,-8.15,-11.89,-11.73,0,*5C
1547806116.32,34175,0.0,0.0,-8.15,-11.85,-11.55,0,*55
1547806117.6,34176,0.0,0.0,-8.15,-11.59,-11.33,0,*57
1547806118.87,34177,0.0,0.0,-8.13,-11.55,-11.29,0,*57
1547806120.13,34178,0.0,0.0,-8.15,-11.73,-11.41,0,*54
1547806121.37,34179,0.0,0.0,-8.13,-11.45,-11.29,0,*58
1547806122.61,34180,0.0,0.0,-8.13,-11.73,-11.41,0,*55
1547806123.9,34181,0.0,0.0,-8.15,-12.15,-11.97,0,*5A
1547806125.14,34182,0.0,0.0,-8.13,-12.15,-12.03,0,*51
1547806126.37,34183,0.0,0.0,-8.13,-11.85,-11.45,0,*5B
1547806127.64,34184,0.0,0.0,-8.15,-11.59,-11.45,0,*5B
1547806128.88,34185,0.0,0.0,-8.13,-11.45,-11.29,0,*5B
1547806130.12,34186,0.0,0.0,-8.13,-11.45,-11.33,0,*53
1547806131.33,34187,0.0,0.0,-8.13,-11.41,-11.15,0,*52
1547806132.57,34188,0.0,0.0,-8.13,-11.29,-11.01,0,*56
1547806133.86,34189,0.0,0.0,-8.11,-11.55,-11.37,0,*5B
1547806135.14,34190,0.0,0.0,-8.11,-11.51,-11.29,0,*58
1547806136.42,34191,0.0,0.0,-8.11,-11.55,-11.37,0,*52
1547806137.66,34192,0.0,0.0,-8.11,-11.41,-11.15,0,*54
1547806138.93,34193,0.0,0.0,-8.11,-11.41,-11.29,0,*5A
1547806140.2,34194,0.0,0.0,-8.11,-11.63,-11.41,0,*53
1547806141.43,34195,0.0,0.0,-8.07,-11.23,-11.11,0,*54
1547806142.69,34196,0.0,0.0,-8.07,-11.37,-11.19,0,*5A
1547806143.93,34197,0.0,0.0,-8.07,-11.19,-10.93,0,*54
1547806145.22,34198,0.0,0.0,-8.07,-11.33,-11.07,0,*5F
1547806146.49,34199,0.0,0.0,-8.07,-11.51,-11.33,0,*5D
1547806147.75,34200,0.0,0.0,-8.07,-11.37,-11.11,0,*5E
1547806149.01,34201,0.0,0.0,-8.07,-11.37,-11.19,0,*57
1547806150.27,34202,0.0,0.0,-8.07,-11.45,-11.33,0,*59
1547806151.53,34203,0.0,0.0,-8.07,-11.51,-11.45,0,*5C
1547806152.8,34204,0.0,0.0,-8.07,-11.63,-11.45,0,*5A
1547806154.09,34205,0.0,0.0,-8.07,-11.63,-11.51,0,*5E
1547806155.37,34206,0.0,0.0,-8.07,-11.59,-11.33,0,*50